Wind_Speed
22 22 21 21 21 21 21 20 19 19 20 20 20 19 17 18 19 18 17 17 16 15 14 13 13 12 12 12 12 13 13 13 13 13 14 14 13 14 14 13 13 14 14 14
22 21 20 21 22 22 22 21 19 20 21 21 20 20 18 19 18 17 17 17 15 15 15 14 14 14 14 14 13 13 13 14 14 15 15 15 14 14 14 14 14 14 14 13
22 21 21 22 22 22 22 21 20 20 22 22 21 20 20 20 19 18 18 17 16 16 16 16 16 16 15 14 13 13 14 14 15 15 16 16 16 15 14 15 15 14 14 14
21 21 22 22 22 22 22 21 20 21 22 22 22 21 19 20 19 18 18 17 16 17 16 16 16 16 16 15 15 15 15 16 16 16 17 17 16 15 14 14 14 14 14 14
19 20 21 21 21 21 21 21 21 22 22 22 22 22 20 20 19 18 18 18 17 17 16 16 16 16 16 16 16 16 17 18 17 18 18 16 16 15 14 14 13 14 15 15
19 20 19 20 20 20 20 21 22 22 23 22 21 22 21 20 19 18 19 18 18 17 17 16 17 17 17 16 17 17 18 18 18 18 17 16 15 15 14 13 13 14 16 16
19 19 18 19 19 19 19 20 21 22 22 21 20 21 20 19 18 18 19 19 18 18 18 18 19 18 18 18 18 18 17 18 18 17 17 15 15 15 14 13 14 15 16 16
20 19 18 18 18 19 19 20 21 21 21 20 20 20 19 19 18 19 19 19 18 18 18 18 18 18 18 19 19 18 17 17 16 16 15 15 15 15 14 14 15 15 15 15
20 19 19 20 19 19 20 21 21 21 21 21 21 20 18 17 18 18 18 19 20 19 19 18 18 17 18 18 18 17 17 17 16 15 14 14 15 15 14 15 15 15 15 16
22 21 20 20 20 20 21 21 22 22 23 23 22 21 19 18 18 18 19 19 20 20 19 18 18 17 17 17 16 17 17 17 17 16 15 14 15 15 15 15 15 15 15 16
22 22 21 22 22 22 22 23 23 23 23 24 24 22 20 20 19 20 20 20 21 21 20 19 19 19 18 18 17 17 18 18 18 17 16 15 15 15 14 15 15 16 16 16
23 23 23 24 23 23 23 24 24 24 24 24 24 23 20 20 20 20 21 21 22 22 21 21 21 20 20 19 18 18 18 18 18 17 17 16 16 15 15 15 16 16 16 16
25 25 24 24 24 24 24 24 25 25 24 24 24 22 20 20 20 21 22 22 22 23 22 21 21 21 20 20 19 18 18 18 17 16 16 17 17 16 16 16 16 17 17 17
26 26 26 26 25 25 25 25 25 26 26 25 23 22 20 20 21 22 22 22 23 23 23 22 21 21 19 19 19 18 18 18 18 17 17 17 17 16 15 16 16 16 17 18
26 27 26 25 26 26 27 27 25 26 26 27 24 22 20 20 21 21 21 22 23 23 22 22 22 21 20 20 20 19 19 19 18 17 17 17 17 16 16 16 17 18 18 19
27 27 28 27 26 27 27 27 27 26 26 26 25 23 22 21 21 20 20 21 21 22 23 23 22 22 21 21 20 20 20 20 19 18 17 18 18 18 18 18 18 18 19 18
28 29 29 28 28 28 28 27 27 27 27 27 26 25 24 22 21 20 19 19 20 21 22 23 22 21 21 21 22 22 21 20 19 19 19 18 19 19 19 18 18 18 19 18
29 29 30 30 29 29 27 26 27 27 27 27 26 25 24 22 21 20 19 19 19 19 20 20 19 20 21 21 22 22 21 20 19 19 19 19 20 20 20 20 19 19 19 19
29 29 30 30 30 28 26 24 24 26 26 25 24 23 22 22 21 20 20 19 18 18 18 19 20 21 21 21 20 20 20 19 18 18 18 18 19 19 20 20 20 20 20 20
27 27 28 29 29 27 25 24 24 24 24 24 23 22 22 21 20 20 20 20 20 20 20 20 20 20 20 20 19 19 19 19 20 19 19 19 19 19 20 20 21 20 20 20
25 26 26 27 27 26 25 24 23 24 22 23 23 22 21 21 20 19 19 20 20 20 20 20 20 19 19 19 19 19 19 20 20 20 20 19 19 19 20 21 21 21 22 21
25 26 26 27 28 26 25 25 24 24 23 22 22 22 21 21 20 20 20 20 20 19 19 19 19 19 19 19 19 19 19 20 20 20 20 20 20 20 20 21 21 22 23 22
23 23 24 25 26 25 25 25 25 25 23 22 22 22 22 21 21 20 20 20 20 20 20 19 19 18 18 19 19 19 19 20 20 20 21 21 21 21 21 22 21 21 21 21
20 21 23 24 25 23 23 24 25 24 23 22 22 22 22 22 22 21 21 21 21 21 20 20 19 18 18 18 18 19 20 20 20 21 21 21 21 21 21 22 23 22 22 23
20 20 21 23 23 24 24 24 24 23 23 23 23 22 22 22 22 22 21 21 21 21 20 20 19 19 18 18 18 18 18 19 19 19 20 21 21 21 22 21 22 24 24 23
18 19 19 20 21 21 22 22 23 22 22 23 23 23 23 24 22 22 22 22 22 21 20 19 19 20 19 18 18 18 18 18 18 19 20 20 21 21 21 22 23 24 24 23
Wind_Direction
251 251 252 255 256 253 252 253 251 253 253 254 254 256 257 257 258 260 261 266 265 268 267 268 273 278 281 285 287 284 281 276 277 279 281 279 279 275 276 272 272 274 274 273
250 250 252 250 250 252 251 252 252 252 253 254 251 253 255 255 255 257 259 264 266 267 265 267 269 273 278 281 282 281 276 275 277 277 280 278 273 271 272 273 276 277 274 269
251 251 249 248 248 249 251 253 254 254 252 253 255 253 254 254 256 257 260 262 262 265 263 264 265 269 276 280 280 282 277 274 278 275 277 280 278 276 276 277 277 275 273 272
248 248 248 249 249 250 252 254 255 255 252 253 257 258 253 254 256 260 261 262 266 267 265 263 264 266 270 273 276 279 276 275 281 278 277 276 275 275 275 274 272 269 269 270
249 248 247 247 247 249 251 251 252 253 253 254 257 260 256 255 255 259 260 261 265 264 263 263 262 263 267 270 273 276 276 278 281 278 276 274 274 274 273 271 271 271 269 270
246 244 244 244 244 246 248 248 250 252 254 255 257 261 259 258 256 256 259 261 262 263 261 260 260 261 265 269 271 275 277 279 281 277 272 272 273 273 272 272 275 275 274 274
243 244 244 243 243 242 244 247 249 251 253 256 258 261 261 261 257 258 259 261 263 263 262 261 262 263 267 270 269 274 277 278 279 276 272 270 274 271 266 268 274 278 277 276
242 244 243 243 244 243 244 245 249 253 254 255 256 259 262 262 261 260 261 262 262 264 264 263 266 266 269 272 273 274 276 276 274 275 276 273 275 269 264 266 272 277 278 277
243 241 242 244 246 245 244 244 247 253 256 257 256 259 262 263 262 262 264 264 263 264 262 262 265 268 271 272 272 271 272 275 275 276 275 274 274 267 264 266 270 273 275 275
246 244 241 245 245 246 246 245 247 250 255 257 258 260 263 263 265 265 264 264 265 265 265 264 263 267 271 272 271 268 269 274 278 276 273 274 273 270 268 269 271 274 275 275
246 245 242 243 246 249 250 249 249 251 256 259 262 262 264 265 266 265 266 266 267 265 263 263 262 265 268 270 270 270 269 271 276 276 272 272 272 271 269 268 270 274 274 274
247 246 244 244 247 249 251 252 250 251 257 261 264 264 266 268 268 268 267 267 267 266 264 264 263 263 266 269 270 270 270 273 274 275 270 271 271 270 268 268 272 275 278 277
247 248 246 245 246 250 252 253 252 252 254 258 262 264 267 268 268 268 268 267 266 266 265 265 265 266 266 268 269 271 272 272 270 270 268 268 267 267 268 271 272 275 278 278
247 249 249 249 250 251 252 250 250 251 254 257 260 265 266 265 268 270 269 269 267 266 265 265 268 268 266 267 268 270 271 271 269 269 266 265 265 265 268 270 272 275 276 277
249 250 251 250 249 251 252 252 252 253 256 258 261 264 265 265 269 271 269 268 266 264 265 266 269 267 263 264 265 268 270 271 270 269 264 264 264 266 267 269 272 275 278 279
250 252 252 251 251 252 251 252 254 256 256 258 260 263 264 265 267 269 269 268 266 261 261 264 267 266 266 264 263 267 268 269 267 265 261 262 262 262 264 267 271 275 279 280
252 253 252 250 252 252 251 254 255 257 258 261 263 266 267 265 266 267 269 267 265 265 263 265 267 268 267 266 264 265 264 264 265 263 259 258 259 261 264 267 270 273 276 279
252 253 252 251 249 252 254 254 255 256 258 261 263 266 266 263 264 264 265 266 267 267 265 266 268 270 269 269 267 266 264 265 264 262 262 260 258 261 264 266 268 271 273 276
253 252 250 249 251 253 253 255 255 256 259 260 263 264 263 261 262 262 263 264 263 265 266 267 270 271 270 269 269 265 262 263 264 264 263 261 262 263 264 266 269 271 273 275
251 250 248 247 249 251 253 257 257 257 260 259 260 260 260 261 261 258 260 261 261 263 267 268 269 269 268 268 267 262 259 261 262 263 262 261 261 262 264 267 270 270 272 277
249 247 248 247 248 250 252 255 258 259 261 261 259 258 258 260 259 256 258 259 259 261 264 267 269 271 268 266 266 261 258 260 260 260 261 262 263 266 268 269 271 272 275 277
249 249 248 247 249 250 251 254 258 259 260 261 258 256 256 258 259 259 262 264 262 261 264 267 268 269 269 268 266 262 258 258 259 261 261 264 267 270 271 270 272 274 275 277
249 247 248 249 250 251 250 253 255 254 256 255 253 254 255 258 261 262 262 264 264 263 264 267 270 268 270 270 266 262 259 259 261 261 262 265 267 271 272 272 272 274 274 275
248 247 248 249 252 253 250 251 251 251 251 252 251 251 255 257 258 260 261 263 264 264 264 267 268 267 269 269 266 263 260 259 262 262 264 266 268 270 274 273 273 274 277 278
248 250 250 250 253 255 252 251 250 250 252 254 254 254 255 257 259 261 262 264 266 267 265 264 265 265 265 262 261 262 263 263 264 265 265 266 269 272 274 274 274 277 279 281
248 249 250 251 249 249 249 250 250 251 253 253 253 252 254 258 258 259 261 264 265 263 262 261 261 261 261 259 261 264 264 263 265 266 268 269 272 273 274 275 278 279 280 280
Height
5823 5825 5827 5829 5829 5831 5831 5832 5833 5835 5834 5834 5834 5835 5837 5837 5837 5838 5838 5839 5840 5840 5840 5840 5840 5840 5840 5839 5839 5839 5838 5838 5837 5837 5837 5836 5836 5836 5836 5835 5835 5835 5835 5835
5819 5820 5823 5823 5824 5825 5826 5827 5829 5830 5829 5829 5830 5831 5832 5833 5834 5835 5835 5835 5836 5836 5836 5836 5836 5836 5837 5836 5836 5835 5835 5835 5834 5834 5834 5833 5833 5832 5832 5832 5831 5831 5830 5831
5814 5817 5817 5817 5818 5820 5821 5823 5824 5825 5825 5825 5825 5827 5828 5829 5830 5831 5832 5832 5832 5832 5832 5832 5832 5833 5833 5833 5832 5832 5832 5831 5831 5830 5830 5830 5829 5829 5828 5828 5828 5827 5827 5827
5809 5811 5811 5812 5814 5815 5817 5819 5819 5819 5820 5820 5822 5822 5825 5826 5827 5828 5828 5828 5828 5828 5828 5828 5828 5828 5829 5829 5829 5828 5828 5828 5827 5826 5826 5826 5825 5825 5824 5824 5824 5823 5823 5824
5804 5806 5806 5808 5810 5811 5812 5814 5814 5814 5815 5816 5817 5818 5821 5822 5823 5824 5824 5825 5825 5825 5824 5824 5824 5824 5825 5825 5824 5824 5824 5823 5823 5822 5822 5821 5821 5820 5820 5820 5820 5820 5820 5820
5799 5800 5801 5803 5805 5806 5807 5808 5809 5809 5810 5811 5813 5814 5816 5818 5819 5820 5821 5821 5821 5821 5821 5821 5821 5821 5821 5821 5820 5820 5819 5819 5818 5817 5817 5816 5816 5816 5816 5816 5816 5816 5816 5816
5794 5795 5797 5798 5800 5801 5802 5804 5804 5805 5805 5807 5809 5809 5812 5813 5814 5816 5816 5816 5816 5817 5817 5817 5817 5816 5817 5816 5816 5815 5815 5814 5813 5812 5812 5811 5812 5812 5812 5812 5812 5812 5812 5812
5789 5792 5793 5794 5796 5797 5798 5800 5801 5801 5802 5804 5804 5805 5808 5809 5810 5811 5811 5812 5812 5812 5813 5813 5812 5812 5812 5812 5812 5811 5810 5809 5809 5808 5807 5807 5807 5807 5807 5808 5808 5808 5808 5808
5785 5788 5790 5791 5792 5794 5794 5795 5797 5798 5798 5799 5800 5802 5804 5804 5805 5806 5806 5807 5807 5808 5808 5808 5808 5808 5807 5807 5806 5806 5805 5805 5805 5804 5803 5803 5803 5803 5803 5804 5804 5804 5804 5804
5779 5782 5785 5786 5787 5788 5790 5791 5792 5792 5793 5794 5796 5797 5799 5800 5801 5801 5801 5802 5802 5803 5803 5803 5802 5802 5802 5802 5801 5801 5801 5801 5800 5800 5799 5799 5799 5800 5800 5800 5800 5800 5800 5800
5774 5777 5779 5781 5782 5784 5785 5786 5787 5788 5788 5789 5790 5794 5795 5795 5796 5796 5797 5797 5797 5797 5798 5798 5798 5797 5797 5797 5797 5796 5796 5796 5796 5796 5795 5795 5795 5795 5795 5796 5796 5796 5795 5795
5769 5771 5773 5775 5777 5778 5780 5781 5782 5783 5783 5784 5785 5789 5789 5790 5790 5790 5791 5791 5791 5792 5792 5793 5793 5793 5793 5792 5792 5792 5791 5791 5791 5791 5791 5791 5791 5791 5791 5791 5792 5791 5790 5790
5763 5765 5767 5769 5772 5773 5774 5775 5776 5777 5778 5778 5779 5784 5783 5784 5784 5784 5785 5785 5785 5786 5786 5787 5787 5787 5787 5787 5787 5787 5786 5786 5786 5786 5786 5786 5786 5787 5786 5787 5787 5787 5786 5786
5757 5759 5762 5764 5766 5767 5768 5770 5771 5772 5772 5773 5774 5776 5778 5778 5778 5778 5778 5779 5779 5779 5780 5781 5781 5781 5781 5782 5782 5782 5781 5781 5781 5781 5781 5781 5782 5782 5782 5782 5782 5782 5782 5781
5750 5753 5755 5757 5759 5761 5762 5763 5765 5766 5767 5768 5769 5770 5772 5772 5772 5773 5773 5773 5773 5773 5774 5774 5775 5775 5775 5776 5776 5776 5776 5776 5776 5776 5776 5777 5777 5778 5778 5778 5777 5777 5777 5776
5743 5746 5748 5750 5753 5754 5755 5757 5759 5760 5761 5762 5763 5765 5766 5766 5767 5767 5767 5767 5766 5767 5768 5769 5769 5769 5769 5770 5770 5771 5770 5770 5771 5771 5771 5772 5772 5772 5773 5772 5772 5772 5771 5770
5736 5739 5741 5743 5746 5747 5749 5752 5753 5754 5755 5756 5757 5759 5759 5760 5761 5761 5761 5761 5761 5761 5762 5763 5763 5763 5763 5764 5764 5764 5764 5765 5765 5765 5766 5766 5766 5767 5767 5767 5767 5767 5766 5765
5730 5731 5733 5736 5739 5740 5745 5745 5746 5747 5749 5750 5751 5752 5753 5754 5755 5756 5756 5756 5756 5756 5756 5757 5757 5757 5757 5757 5758 5758 5759 5759 5759 5759 5760 5760 5761 5761 5761 5761 5761 5761 5760 5759
5723 5724 5726 5728 5731 5733 5737 5738 5740 5741 5742 5743 5744 5746 5747 5748 5749 5750 5750 5750 5751 5751 5751 5751 5751 5751 5751 5751 5751 5752 5752 5753 5753 5754 5754 5754 5755 5755 5755 5755 5755 5755 5754 5753
5715 5717 5719 5721 5723 5726 5731 5732 5732 5735 5735 5737 5738 5739 5740 5741 5743 5745 5744 5744 5745 5745 5745 5745 5745 5745 5745 5745 5745 5746 5746 5747 5748 5748 5748 5748 5749 5749 5749 5749 5749 5748 5747 5747
5708 5709 5712 5714 5716 5719 5723 5724 5726 5729 5730 5730 5731 5733 5734 5735 5737 5738 5738 5738 5738 5739 5739 5739 5740 5740 5740 5739 5739 5740 5741 5741 5741 5742 5743 5743 5743 5744 5744 5743 5742 5742 5741 5741
5701 5703 5705 5708 5710 5714 5716 5717 5720 5721 5722 5723 5725 5726 5727 5729 5730 5731 5732 5732 5732 5732 5733 5733 5734 5734 5733 5733 5733 5734 5735 5735 5736 5736 5737 5737 5738 5738 5737 5737 5736 5736 5735 5734
5694 5697 5699 5702 5705 5706 5708 5711 5713 5714 5716 5717 5718 5720 5721 5722 5723 5724 5725 5726 5726 5726 5727 5727 5727 5727 5727 5727 5728 5728 5729 5730 5730 5731 5731 5731 5732 5732 5731 5731 5730 5729 5728 5728
5688 5690 5693 5695 5697 5699 5701 5703 5705 5707 5709 5710 5712 5713 5715 5716 5717 5718 5719 5720 5720 5720 5720 5720 5721 5721 5722 5722 5722 5722 5723 5724 5724 5725 5725 5725 5725 5725 5725 5724 5723 5722 5722 5721
5682 5684 5686 5688 5691 5693 5695 5697 5699 5700 5702 5703 5705 5707 5708 5709 5710 5711 5712 5713 5713 5713 5713 5714 5715 5715 5716 5716 5716 5717 5717 5718 5718 5718 5719 5719 5719 5718 5718 5717 5716 5716 5715 5714
5677 5679 5681 5683 5685 5687 5689 5691 5692 5694 5695 5697 5699 5700 5701 5702 5703 5704 5705 5706 5706 5706 5707 5708 5708 5709 5710 5710 5710 5711 5711 5712 5712 5712 5712 5712 5712 5712 5711 5711 5709 5708 5708 5707